Regional Weather Roundup
Issued by NWS State College, PA

Home | Current Version | Previous Version | Text Only | Print | Product List | Glossary Off
Versions: 1 2 3 4 5 6 7 8 9 10 11 12 13 14 15 16 17 18 19 20 21 22 23 24 25 26 27 28 29 30 31 32 33 34 35 36 37 38 39 40 41 42 43 44 45 46 47 48 49 50

000
ASUS41 KCTP 261910
RWRCTP

REGIONAL WEATHER ROUNDUP
NATIONAL WEATHER SERVICE STATE COLLEGE PA
200 PM EST WED NOV 26 2014

Note: "fair" indicates few or no clouds below 12,000 feet with no
significant weather and/or obstructions to visibility.

* = STATION THAT DOES NOT REPORT PRECIPITATION /E.G. RAIN...SNOW...ETC/
    THUNDER OR FOG.

PAZ002>004-007>009-013>016-020>023-029>032-262000-
WESTERN PENNSYLVANIA

CITY           SKY/WX    TMP DP  RH WIND       PRES   REMARKS
ERIE           PTSUNNY   36  28  73 NE8       30.07F
MEADVILLE      CLOUDY    33  29  85 N3        30.02F
FRANKLIN*      CLOUDY    30  27  86 NE6       30.01F
NEW CASTLE       N/A     33  30  89 N5        30.03F
BEAVER COUNTY  CLOUDY    32  30  93 N3        30.11R FOG
BUTLER*        CLOUDY    32  30  93 NE5       30.02S
PITTSBURGH INT LGT SNOW  32  30  92 N5        30.01S FOG
PITTSBURGH     LGT SNOW  32  28  85 N5        30.00S VSB 3/4
INDIANA*       FOG       32  32 100 NE5       30.02F VSB 3/4
LATROBE        LGT SNOW  32  32 100 CALM      30.01F
WASHINGTON CO* CLOUDY    32  28  86 CALM      30.02R
$$

PAZ004>006-010>012-017>019-024>028-033>037-041-042-045-046-049>053-262000-
CENTRAL PENNSYLVANIA

CITY           SKY/WX    TMP DP  RH WIND       PRES   REMARKS
BRADFORD       LGT SNOW  30  26  85 NE5       29.97F VSB 3/4
DUBOIS         SNOW      31  29  92 NE7       29.96F VSB 1/2
CLEARFIELD     LGT SNOW  32  30  92 N6        29.97F VSB 3/4
JOHNSTOWN      LGT SNOW  31  29  92 N5        29.92F VSB 1
ALTOONA        SNOW      32  31  96 NE6       29.95F VSB 1/2
STATE COLLEGE  LGT SNOW  32  30  93 NE6       29.97F VSB 3/4
WILLIAMSPORT   LGT SNOW  33  31  92 W3        30.00F VSB 1
SELINSGROVE    LGT SNOW  34  31  88 N9        29.98F VSB 1
FT INDIANTOWN  LGT RAIN  34  32  93 NE8       29.93F
CAPITAL CITY   LGT SNOW  34  32  92 NW5       29.94F FOG
HARRISBURG     LGT SNOW  32  32 100 NW5       29.94F VSB 3/4
YORK           LGT SNOW  34  32  92 N6        29.93F FOG
$$

PAZ038>040-043-044-047-048-054-055-060>062-067>071-262000-
EASTERN PENNSYLVANIA

CITY           SKY/WX    TMP DP  RH WIND       PRES   REMARKS
SCRANTON       LGT SNOW  33  31  92 NE5       29.96F VSB 3/4
MOUNT POCONO   LGT SNOW  31  27  85 N12       29.89F VSB 3/4
ALLENTOWN      SNOW      34  30  86 NE14      29.90F VSB 1/2
QUAKERTOWN*    CLOUDY    32  32 100 NE8       29.90F VSB 3/4
READING        LGT SNOW  34  31  88 NE8       29.91F FOG
LANCASTER      LGT SNOW  33  31  92 N9        29.92F VSB 1
COATESVILLE    LGT SNOW  32  32 100 N9G17     29.85F VSB 1
POTTSTOWN      LGT SNOW  33  32  96 N9G18     29.90F VSB 1
BLUE BELL      CLOUDY    34  34 100 N5        29.87F
DOYLESTOWN     LGT SNOW  32  32 100 N9        29.90F FOG
WILLOW GROVE   NOT AVBL
NORTH PHILA    LGT RAIN  36  31  82 NE15      29.89F
PHILADELPHIA   LGTSLEET  37  33  85 NE16G25   29.86F
$$



USA.gov is the U.S. government's official web portal to all federal, state and local government web resources and services.